全球星 M053星 (GLOBALSTAR M053)

导读 | 星芒AI

GLOBALSTAR M053 是 Globalstar 卫星通信公司部署的一颗低轨移动通信卫星,属于其第二代卫星星座(Globalstar 2)的一部分。该卫星运行在约1414公里高度的近极地轨道,主要用于提供语音和数据通信服务,特别是在偏远地区和海上等传统蜂窝网络难以覆盖的区域。M053 卫星采用先进的通信技术,支持点对点通信和中继功能,提升了系统的可靠性和覆盖范围,为全球用户提供稳定的移动卫星通信解决方案。

基本信息
目录编号:
25886
目录名称:
GLOBALSTAR M053
国际标识:
1999-043D
轨道中心:
EARTH
卫星名称:
全球星 M053星
卫星全名:
全球星 M053星 (GLOBALSTAR M053)
卫星状态:
在轨 (已飞行9570 天)
发射日期:
1999-08-17 UTC
国别 :
(GLOB)
星等 :
--
轨道信息
数据来源 国际轨道数据 AOE轨道数据
星历时间 2025-10-28T20:07:32+0800
1天前
查看轨道信息
2025-10-29T21:00:00+0800
4小时前
查看轨道信息
半长轴 8400.034km 8400.033km
偏心率 0.0003344 0.0003281
轨道倾角 51.997° 51.996°
近地点辐角 324.569° 325.838°
升交点赤经 220.987° 218.561°
平近点角 206.185° 94.177°
近地点 2019.09km 2019.141km
远地点 2024.708km 2024.655km
周期 127.697分钟 127.697分钟
每日圈数 11.276679 11.276682
详细信息
固有亮度:
5
最大亮度:
7.9
平衡模式:
三轴稳定
覆盖范围:
全球
运营商:
全球星公司
运营商所在国:
美国
使用方式:
暂无
卫星简介
全球星星座由48颗卫星加8颗备份星组成。这些卫星分布在8个倾角为52度的圆形轨道平面上,每个轨道平面6颗卫星,另有1 颗备用星。轨道高度约为1414km,传输时延和处理时延小于300ms,整个系统的覆盖区为南北纬70度以内的地区。该卫星已退役。
2D轨道图
3D轨道图
轨道高度分析图
轨道倾角分析图
轨道综合分析图
查看轨道综合分析图